Flag for South Africa Weather past 2 weeks in Rustenburg, South Africa

Now
68 °F

Clear.


Feels Like: 68 °F
Forecast: 47 / 78 °F
Wind: 2 mph from North

Location: Lanseria Civ / Mil

Current Time: May 6, 2015 at 7:30:37 PM

Latest Report: May 6, 2015 at 7:00 PM


Visibility: 10 mi

Pressure: 30.18 "Hg

Humidity: 24%

Dew point: 30 °F

Location of RustenburgLocation

Historic Weather in Rustenburg — Graph

°F

Rustenburg temperature yesterday

Maximum temperature yesterday: 81 °F (at 2:00 PM)
Minimum temperature yesterday: 46 °F (at 6:00 AM)
Average temperature yesterday: 64 °F

Past Weeks' High & Low Weather Summary

 TemperatureHumidityPressure
High84 °F (May 6, 2:00 PM)100% (Apr 24, 6:00 AM)30.45 "Hg (Apr 24, 6:00 AM)
Low41 °F (May 1, 5:00 AM)9% (May 1, 2:00 PM)30.04 "Hg (Apr 29, 3:00 PM)
Average63 °F47%30.26 "Hg
* Reported Apr 21 6:00 PM — May 6 6:00 PM, Rustenburg, Weather by CustomWeather, © 2015

Note: Actual official high and low records may vary slightly from our data, if they occured in-between our weather recording intervals... More about our weather records

Advertising

Rustenburg weather history for previous 24 hours

 ConditionsComfort  
Time TempWeatherWind HumidityBarometerVisibility
6:00 PM
Wed, May 6
75 °FClear.10 mph18%30.15 "Hg10 mi
5:00 PM81 °FClear.9 mph14%30.15 "Hg10 mi
4:00 PM84 °FPassing clouds.12 mph12%30.12 "HgN/A
3:00 PM82 °FPassing clouds.13 mph12%30.12 "HgN/A
2:00 PM84 °FPassing clouds.10 mph12%30.12 "HgN/A
1:00 PM82 °FSunny.6 mph15%30.15 "Hg10 mi
12:00 PM81 °FPassing clouds.9 mph18%30.18 "HgN/A
11:00 AM77 °FPassing clouds.6 mph21%30.18 "HgN/A
10:00 AM70 °FSunny.3 mph29%30.21 "Hg10 mi
9:00 AM63 °FPassing clouds.3 mph39%30.21 "HgN/A
8:00 AM55 °FSunny.5 mph55%30.21 "Hg10 mi
7:00 AM50 °FPassing clouds.5 mph67%30.18 "HgN/A
6:00 AM48 °FSunny.5 mph71%30.18 "Hg10 mi
5:00 AM50 °FCool.5 mph67%30.18 "HgN/A
4:00 AM50 °FCool.6 mph67%30.18 "HgN/A
3:00 AM48 °FCool.3 mph66%30.18 "HgN/A
2:00 AM55 °FRefreshingly cool.No wind47%30.18 "HgN/A
1:00 AM55 °FRefreshingly cool.3 mph51%30.21 "HgN/A
12:00 AM59 °FRefreshingly cool.3 mph45%30.21 "HgN/A
11:00 PM
Tue, May 5
57 °FRefreshingly cool.5 mph48%30.24 "HgN/A
10:00 PM63 °FClear.3 mph34%30.24 "Hg10 mi
9:00 PM63 °FClear.No wind34%30.24 "Hg10 mi
8:00 PM68 °FClear.7 mph26%30.21 "Hg10 mi
7:00 PM70 °FPassing clouds.6 mph25%30.21 "HgN/A
Weather by CustomWeather, © 2015

See weather overviewHow to use our weather pages